Regional Weather Roundup
Issued by NWS Austin/San Antonio, TX

Current Version | Previous Version | Text Only | Print | Product List | Glossary On
Versions: 1 2 3 4 5 6 7 8 9 10 11 12 13 14 15 16 17 18 19 20 21 22 23 24 25 26 27 28 29 30 31 32 33 34 35 36 37 38 39 40 41 42 43 44 45 46 47 48 49 50
000
ASUS44 KEWX 050702
RWREWX
SOUTH TEXAS REGIONAL WEATHER ROUNDUP
NATIONAL WEATHER SERVICE AUSTIN/SAN ANTONIO TX
200 AM CDT SUN JUL 05 2020

NOTE: "FAIR" INDICATED FEW OR NO CLOUDS BELOW 12,000 FEET WITH NO
SIGNIFICANT WEATHER AND/OR OBSTRUCTIONS TO VISIBILITY.

* - THESE STATIONS ARE NOT NWS OR FAA STATIONS...AND ARE NOT SUBJECT
    TO NWS AND FAA QUALITY CONTROL.

TXZ171-172-183>190-050800-
TEXAS HILL COUNTRY AND EDWARDS PLATEAU

CITY           SKY/WX    TMP DP  RH WIND       PRES   REMARKS
JUNCTION       CLEAR     84  64  50 S9        29.90F
*LLANO         CLEAR     79  64  61 CALM      29.90F
BURNET         CLEAR     80  63  55 S5        29.90F
*HORSESHOE BAY CLEAR     82  64  54 CALM      29.88S
*LAGO VISTA    CLEAR     79  70  74 S5        29.89F
*KERRVILLE     CLEAR     79  71  75 SE7       29.93S
*FREDERICKSBRG CLEAR     79  60  53 CALM      29.93S
*ROCKSPRINGS   CLEAR     81  63  54 SE13G18   29.99F
*BOERNE        CLEAR     77  72  83 S5        29.93S
*CASTROVILLE   CLEAR     82  70  66 MISG      29.90F HAZE
HONDO          CLEAR     80  71  74 S8        29.89F
*UVALDE          N/A     81  72  74 SE7       29.89F
DEL RIO        CLEAR     89  62  40 SE12      29.85S
*LAUGHLIN AFB  NOT AVBL
*SPOFFORD      NOT AVBL
*EAGLE PASS    NOT AVBL
CARRIZO SPRGS  CLEAR     84  72  65 SE9       29.85S
$$

TXZ173-191>194-202-209-217>225-228-050800-
CENTRAL AND SOUTH CENTRAL TEXAS

CITY           SKY/WX    TMP DP  RH WIND       PRES   REMARKS
GEORGETOWN     CLEAR     82  73  74 S14       29.88F
*TAYLOR        CLEAR     79  73  83 S9        29.87S
AUSTIN/BERGSTM PTCLDY    78  72  81 S7        29.86F
AUSTIN/MABRY   CLEAR     80  72  76 VRB3      29.88F
*PFLUGERVILLE  CLEAR     77  72  83 S5        29.88S
SAN MARCOS     CLEAR     78  73  84 S6        29.88F
NEW BRAUNFELS  CLEAR     80  71  74 SW9       29.87F
*RANDOLPH AFB  CLEAR     80  70  72 SW8       29.88F
*SEGUIN        NOT AVBL
SAN ANTONIO    PTCLDY    82  69  64 S13G21    29.89F
STINSON FIELD  CLEAR     77  72  84 S6        29.86F
*KELLY FIELD   CLEAR     79  72  78 SE7       29.87F
*PLEASANTON    CLEAR     79  73  82 S5        29.88F
*KENEDY        CLEAR     78  74  89 S8        29.88F
*LA GRANGE     CLEAR     79  77  93 S8        29.85F
*GIDDINGS      CLEAR     82  73  75 S7        29.88F
*GONZALES      CLOUDY    78  76  96 S7        29.86F
$$

TXZ163>164-176>182-195>201-210>213-226-227-235-050800-
SOUTHEAST TEXAS

CITY           SKY/WX    TMP DP  RH WIND       PRES   REMARKS
COLLEGE STN    CLEAR     79  75  87 S6        29.86F
*BRYAN         CLEAR     81  76  85 S7        29.88R
*CALDWELL      CLEAR     79  75  87 S8        29.87F
*CROCKETT      NOT AVBL
*BRENHAM       CLEAR     80  75  84 SW7       29.87F
HUNTSVILLE     CLEAR     81  73  76 S6        29.86F
CONROE         CLEAR     81  75  82 SW6       29.87F HAZE
HOUSTON BUSH   PTCLDY    82  74  76 SW7       29.87F
HOUSTON HOBBY  PTCLDY    80  75  84 SW6       29.86F
*HOUSTON SW AP CLEAR     75  75 100 CALM      29.88F
PEARLAND       CLEAR     80  74  81 CALM      29.89F
HOUSTON HOOKS  CLEAR     80  73  79 S6        29.87F
ELLINGTON FLD  PTCLDY    79  75  89 SW8       29.86F
SUGAR LAND     CLEAR     79  76  90 SW6       29.87F
*HOUSTON EXEC    N/A     79  77  94 S7        29.89F
*CLEVELAND MUN CLEAR     79  77  95 S5        29.87F FOG
*WHARTON       CLEAR     76  73  91 S5        29.89F
*COLUMBUS      FAIR      76  74  94 S5        29.88F
*EAGLE LAKE    CLEAR     79  76  92 S6        29.88
$$

TXZ214>216-236>238-050800-
THE UPPER TEXAS COAST

CITY           SKY/WX    TMP DP  RH WIND       PRES   REMARKS
*ORANGE        CLEAR     82  78  89 SW3       29.88F HX  91
PORT ARTHUR    CLEAR     78  78 100 SW6       29.86F
GALVESTON      PTCLDY    83  77  82 SW8       29.88F HX  92
ANGLETON       CLEAR     76  74  93 S5        29.88F
*BAY CITY      CLEAR     78  77  97 S3        29.88F
PALACIOS       PTCLDY    83  77  82 S13       29.87F HX  92
$$

TXZ229>234-239>247-050800-
TEXAS COASTAL BEND AND RIO GRANDE PLAINS

CITY           SKY/WX    TMP DP  RH WIND       PRES   REMARKS
VICTORIA       CLEAR     77  73  87 S7        29.88F
*BEEVILLE      CLEAR     78  78 100 S6        29.88S
ROCKPORT       CLEAR     81  75  82 S7        29.87F
*PORT ARANSAS  CLEAR     81  77  88 S12       29.90F
*PORT LAVACA   CLEAR     78  75  92 S3        29.89S
*INGLESIDE     PTCLDY    82  78  90 S12       29.88F HX  91
CORPUS CHRISTI CLEAR     77  76  96 S7        29.88F
CORPUS NAS     NOT AVBL
*ROBSTOWN      CLEAR     77  74  91 S7        29.89F
ALICE          CLEAR     78  75  90 S10       29.88F
KINGSVILLE NAS CLEAR     79  75  87 S9        29.88F
COTULLA        CLEAR     83  74  74 SE9       29.86F
LAREDO         CLEAR     83  69  62 SE16      29.87S
$$

TXZ248>255-050800-
DEEP SOUTH TEXAS

CITY           SKY/WX    TMP DP  RH WIND       PRES   REMARKS
BROWNSVILLE    CLEAR     78  76  93 S7        29.90S
PORT ISABEL    CLEAR     80  75  84 S7        29.89F
HARLINGEN      CLEAR     76  74  93 S7        29.89S
*HEBBRONVILLE  CLEAR     75  71  86 S8        29.91F
MCALLEN        CLEAR     80  75  84 SE9       29.89F
*WESLACO       MOCLDY    78  74  89 S6        29.89S
FALFURRIAS     NOT AVBL
EDINBURG       MOCLDY    76  73  90 SE3       29.90S
*ZAPATA        CLEAR     83  74  74 SE9       29.89F
$$

TXZ213>215-236>238-242>244-246-247-251-254-255-050800-
CMAN STATIONS

STATION/POSITION TIME  TEMP    WIND        PRES    WAVE
                       AIR SEA DIR/SP/G            HT/PER
                 (UTC) (F)     (DEG/KT/KT) (MB)    (FT/S)
SABINE PASS      0630   81 88  230/  3/  6 1013.3
NORTH JETTY/GLS  0630   86 86  230/ 10/ 12 1010.7
EAGLE POINT      0630   81 89  230/  7/  9 1011.3
MORGANS POINT    0630   82 87  230/  3/  6 1011.7
PORT O`CONNOR    0630   81 88  200/ 12/ 13 1011.7
PORT ARANSAS     0600   82 83  170/ 13/ 14 1012.1
MALAQUITE BEACH  0630   81     160/ 13/ 14   N/A
BAFFIN BAY       0630   81 86  140/ 15/ 19 1012.3
PORT ISABEL      0630   81 84  160/  8/ 12 1014.3
$$




USA.gov is the U.S. government's official web portal to all federal, state and local government web resources and services.